Zurück zum Katalog

FENGYUN 1C DEB

AktivPO
NORAD 31300·DEBRIS·🇨🇳 China

Gestartet May 10, 1999 von Taiyuan Satellite Launch Center

Loading…

Nächste Überflüge (nächste 24 Stunden)

TLE

AktuellSource: Space-Track

Epoche: Sep 14, 2026, 03:01 UTC

1 31300U 99025BPJ 26257.12629693  .00001641  00000-0  83744-3 0  9993
2 31300  99.5381   0.6505 0058864  12.2789 107.8499 14.16353723   485

Verfolge FENGYUN 1C DEB in Echtzeit mit AllMySat

Download on the App Store